Location: Unspecified
(0.0000°N, 0.0000°E)
Time: 12:09:05
(UTC+00:00)

CZ-3B DEB - Pass Details

Date: 14 February 2026
Orbit: 716 x 41326 km, 26.5° (Epoch: 4 March)

Event Time Altitude Azimuth Distance (km) Brightness Sun altitude
Rises 00:31:00 0° 116° (ESE) 46,987 ? -76.3°
Reaches altitude 10° 02:09:01 10° 118° (ESE) 41,864 ? -58.7°
Maximum altitude 03:38:18 15° 119° (ESE) 33,039 ? -37.8°
Drops below altitude 10° 04:37:43 10° 116° (ESE) 24,575 ? -23.5°
Sets 05:09:12 0° 111° (ESE) 19,302 ? -15.8°
